Weather History for Alabaster, AL

Change the Weather History Date:

Monday, April 1, 2013

  Actual Average Record
Temperature  
Mean Temperature 64 °F 59 °F  
Max Temperature 73 °F 71 °F 85 °F (1982)
Min Temperature 55 °F 48 °F 30 °F (1972)
Degree Days  
Heating Degree Days 1 7  
Month to date heating degree days 1 7  
Since 1 July heating degree days 2272 2445  
Cooling Degree Days 0 1  
Month to date cooling degree days 0 1  
Year to date cooling degree days 9 18  
Growing Degree Days 15 (Base 50)    
Moisture  
Dew Point 52 °F    
Average Humidity 65    
Maximum Humidity 100    
Minimum Humidity 29    
Precipitation  
Precipitation 0.00 in 0.14 in 2.76 in (1957)
Month to date precipitation 0.00 0.14  
Year to date precipitation 18.87 15.70  
Snow  
Snow 0.00 in - - ()
Month to date snowfall 0.0  
Since 1 July snowfall 0.9  
Snow Depth 0.00 in    
Sea Level Pressure  
Sea Level Pressure 29.97 in    
Wind  
Wind Speed 5 mph (NW)    
Max Wind Speed 13 mph    
Max Gust Speed 17 mph    
Visibility 6 miles    
Events Rain    
T = Trace of Precipitation, MM = Missing Value Source: NWS Daily Summary

Daily Weather History Graph

Daily Weather History Graph

Search for Another Location

Airport:

Trip Planner

Search our weather history database for the weather conditions in past years. The results will help you decide how hot, cold, wet, or windy it might be!

Date:

Astronomy

Apr. 01, 2013 Rise Set
Actual Time 6:34 AM CDT 7:07 PM CDT
Civil Twilight 6:09 AM CDT 7:32 PM CDT
Nautical Twilight 5:40 AM CDT 8:01 PM CDT
Astronomical Twilight 5:10 AM CDT 8:31 PM CDT
Moon 12:02 AM CDT (4/1) 10:34 AM CDT (4/1)
Length of Visible Light 13h 22m
Length of Day
12h 33m
Waning Gibbous, 67% of the Moon is Illuminated
Apr 1
Waning Gibbous
Apr 2
Last Quarter
Apr 10
New
Apr 18
First Quarter
Apr 25
Full

Hourly Weather History & Observations

Time (CDT) Temp. Dew Point Humidity Pressure Visibility Wind Dir Wind Speed Gust Speed Precip Events Conditions
12:04 AM 60.8 °F 57.2 °F 88% 29.91 in 4.0 mi WNW 5.8 mph - N/A   Overcast
12:17 AM 60.8 °F 59.0 °F 94% 29.90 in 5.0 mi Calm Calm - 0.00 in Rain Light Rain
12:31 AM 60.8 °F 57.2 °F 88% 29.90 in 5.0 mi Calm Calm - 0.00 in   Overcast
12:53 AM 60.1 °F 57.9 °F 93% 29.90 in 5.0 mi Calm Calm - 0.00 in   Overcast
1:23 AM 59.0 °F 57.2 °F 94% 29.91 in 2.5 mi Calm Calm - N/A   Overcast
1:43 AM 59.0 °F 57.2 °F 94% 29.90 in 3.0 mi Calm Calm - N/A   Overcast
2:10 AM 57.2 °F 57.2 °F 100% 29.91 in 1.5 mi Calm Calm - N/A   Mostly Cloudy
2:22 AM 57.2 °F 57.2 °F 100% 29.91 in 2.5 mi Calm Calm - N/A   Overcast
2:30 AM 59.0 °F 57.2 °F 94% 29.91 in 3.0 mi Calm Calm - N/A   Overcast
2:53 AM 59.0 °F 57.9 °F 96% 29.90 in 3.0 mi Calm Calm - N/A   Overcast
3:30 AM 59.0 °F 57.2 °F 94% 29.91 in 3.0 mi Calm Calm - N/A   Overcast
3:53 AM 59.0 °F 57.9 °F 96% 29.91 in 4.0 mi Calm Calm - N/A   Overcast
4:40 AM 60.8 °F 57.2 °F 88% 29.93 in 3.0 mi NNW 3.5 mph - N/A   Overcast
4:53 AM 59.0 °F 57.9 °F 96% 29.92 in 3.0 mi Calm Calm - N/A   Mostly Cloudy
5:53 AM 57.9 °F 57.0 °F 97% 29.95 in 3.0 mi NW 4.6 mph - N/A   Overcast
6:14 AM 57.2 °F 57.2 °F 100% 29.97 in 3.0 mi NNW 6.9 mph - N/A   Overcast
6:24 AM 57.2 °F 57.2 °F 100% 29.98 in 4.0 mi NW 5.8 mph - N/A   Overcast
6:49 AM 57.2 °F 55.4 °F 94% 29.99 in 2.5 mi NW 4.6 mph - N/A   Overcast
6:53 AM 57.9 °F 55.9 °F 93% 29.99 in 2.5 mi NW 5.8 mph - N/A   Mostly Cloudy
7:04 AM 57.2 °F 55.4 °F 94% 30.00 in 2.5 mi WNW 4.6 mph - N/A   Scattered Clouds
7:32 AM 57.2 °F 55.4 °F 94% 30.01 in 2.5 mi NW 4.6 mph - N/A   Mostly Cloudy
7:53 AM 57.0 °F 55.0 °F 93% 30.01 in 2.5 mi NW 4.6 mph - N/A   Mostly Cloudy
8:01 AM 57.2 °F 55.4 °F 94% 30.02 in 3.0 mi NNW 3.5 mph - N/A   Scattered Clouds
8:53 AM 59.0 °F 52.0 °F 78% 30.03 in 6.0 mi NNW 6.9 mph - N/A   Haze
9:53 AM 62.1 °F 51.1 °F 67% 30.04 in 8.0 mi Variable 6.9 mph - N/A   Clear
10:53 AM 64.9 °F 48.0 °F 54% 30.05 in 9.0 mi NW 8.1 mph - N/A   Clear
11:53 AM 68.0 °F 45.0 °F 43% 30.05 in 9.0 mi NNW 6.9 mph - N/A   Clear
1:53 PM 71.1 °F 39.9 °F 32% 30.03 in 10.0 mi Variable 6.9 mph - N/A   Clear
2:53 PM 71.1 °F 41.0 °F 34% 30.02 in 10.0 mi WNW 11.5 mph - N/A   Clear
3:53 PM 73.0 °F 39.9 °F 30% 30.00 in 10.0 mi NNW 12.7 mph 17.3 mph N/A   Clear
4:53 PM 73.0 °F 41.0 °F 31% 29.98 in 10.0 mi NNW 4.6 mph - N/A   Clear
5:53 PM 73.0 °F 41.0 °F 31% 29.98 in 10.0 mi NNE 4.6 mph - N/A   Clear
6:53 PM 69.1 °F 42.1 °F 38% 29.99 in 10.0 mi NW 4.6 mph - N/A   Clear
7:53 PM 64.0 °F 46.0 °F 52% 30.01 in 10.0 mi Calm Calm - N/A   Clear
8:53 PM 60.1 °F 48.0 °F 64% 30.03 in 10.0 mi Calm Calm - N/A   Clear
9:53 PM 61.0 °F 45.0 °F 56% 30.05 in 10.0 mi NNW 4.6 mph - N/A   Clear
10:53 PM 60.1 °F 45.0 °F 57% 30.06 in 10.0 mi North 3.5 mph - N/A   Clear
11:53 PM 60.1 °F 43.0 °F 53% 30.07 in 10.0 mi North 4.6 mph - N/A   Clear